Theta_e
287 288 288 289 290 291 291 289 289 288 288 287 286 285 285 285 284 284 283 283 281 280 279 277 277 277 278 276 275 278 277 283
283 284 283 285 286 286 286 286 286 286 285 285 284 284 285 285 284 283 282 282 280 279 277 277 276 275 275 276 278 279 279 280
278 278 279 281 284 284 285 285 284 283 283 283 282 281 281 281 281 281 281 279 279 278 277 277 277 277 277 276 277 277 278 278
274 274 275 276 278 279 280 280 281 282 282 281 281 280 280 280 280 279 280 280 279 279 279 278 279 278 279 279 278 279 281 281
272 273 272 273 275 276 276 278 278 281 281 279 279 279 278 278 279 280 279 279 279 278 279 280 280 280 281 281 280 280 281 281
271 275 276 275 274 275 275 275 276 277 279 278 278 279 279 278 278 278 278 278 278 278 278 279 280 281 280 280 280 280 280 280
276 273 273 274 276 276 275 275 277 277 276 275 276 275 275 277 276 277 277 276 276 276 277 278 280 282 284 282 280 280 280 279
274 275 276 276 278 274 275 275 274 275 274 275 275 275 275 275 274 274 275 275 275 275 277 277 278 282 283 284 281 280 280 280
274 275 275 274 275 276 276 276 275 275 275 275 275 275 275 275 274 274 274 274 274 274 275 276 277 281 282 283 282 281 281 281
276 270 273 273 274 275 275 276 276 275 275 275 275 274 274 274 274 274 274 274 275 277 276 276 277 280 282 282 281 281 281 282
273 273 273 271 275 275 275 275 274 275 275 275 275 274 273 274 274 275 275 275 276 276 277 277 277 281 282 282 281 280 280 281
275 273 273 274 275 274 274 274 275 275 274 274 274 273 274 274 274 274 273 274 273 273 274 274 275 276 280 282 281 280 280 280
274 273 275 276 276 274 274 273 273 272 272 272 271 273 273 272 272 272 271 271 271 271 272 274 274 276 278 281 282 282 280 279
273 273 273 274 275 273 272 272 271 270 270 269 268 271 272 270 271 270 270 271 270 272 272 272 274 274 279 280 281 281 278 279
272 271 271 272 273 272 271 270 268 266 267 267 267 268 268 271 271 269 268 268 271 270 270 269 270 271 272 274 273 276 275 275
271 271 270 270 270 270 269 269 269 269 269 269 270 269 268 269 268 270 269 269 267 265 267 265 265 270 275 275 271 270 273 264
269 270 269 268 268 268 268 268 268 268 268 268 268 267 268 267 267 272 275 276 277 277 272 271 275 277 278 279 279 280 279 263
267 266 265 266 267 268 268 267 266 267 268 267 267 267 266 264 263 262 267 273 275 277 278 278 278 279 279 279 279 279 279 264
262 262 263 263 265 266 267 266 265 265 265 265 265 264 262 261 262 260 260 260 261 267 271 273 275 276 277 278 278 268 269 261
260 260 260 262 265 266 267 265 264 263 263 263 263 262 262 261 261 259 258 258 259 257 264 264 271 274 275 277 268 265 265 263
Wind_Speed
5 6 6 9 11 13 15 15 14 13 11 10 9 8 8 8 8 8 6 6 6 6 6 5 5 5 5 3 3 5 3 3
3 5 5 6 8 8 10 13 12 12 10 11 8 7 7 8 7 7 6 7 7 7 6 6 6 5 4 4 5 5 4 3
4 5 6 6 7 8 9 11 10 10 10 9 9 7 6 6 7 7 8 5 7 6 6 5 5 5 6 6 5 5 5 4
5 5 5 5 7 9 9 9 9 10 11 8 8 7 7 6 5 6 7 6 5 6 6 6 6 6 6 6 6 6 6 6
6 5 5 5 6 8 9 8 8 9 9 9 7 6 5 5 5 5 5 6 5 5 6 6 6 6 6 6 6 6 5 6
4 6 5 5 7 7 7 7 6 8 7 7 7 6 5 4 4 4 5 5 5 5 4 5 5 5 6 6 6 6 6 6
5 4 7 6 5 7 6 5 5 8 6 6 6 6 5 4 4 4 4 4 4 4 6 6 4 11 14 9 6 7 7 6
4 5 6 6 8 8 6 6 6 5 5 6 6 5 4 4 3 3 3 3 4 5 5 7 5 13 15 14 6 7 7 7
3 4 5 4 7 8 7 5 6 6 6 6 6 5 5 4 4 3 4 5 5 5 6 5 5 13 13 13 6 5 7 8
5 3 5 6 5 8 8 4 4 5 5 4 4 5 5 5 4 3 3 4 5 4 6 7 7 12 14 13 7 7 7 6
7 6 8 4 5 7 7 5 5 5 4 4 4 3 3 3 4 3 3 4 3 4 4 5 4 9 12 10 4 7 5 7
8 8 6 5 6 6 5 4 4 4 4 4 3 3 3 3 3 3 3 2 2 2 3 2 4 5 10 12 5 4 3 5
6 6 4 5 6 6 5 5 4 4 4 3 2 2 3 4 2 1 2 3 2 1 2 2 4 7 7 10 11 8 4 3
5 5 4 4 3 5 4 4 4 3 3 3 2 2 3 2 2 2 1 1 1 2 1 1 1 0 3 2 2 5 3 2
4 4 3 4 4 4 5 4 4 2 2 2 2 1 0 1 1 1 1 1 2 2 1 0 1 2 1 1 1 1 2 1
2 2 2 3 4 3 3 4 5 5 5 3 3 2 1 2 1 2 2 3 2 2 2 2 2 3 5 5 2 3 4 4
2 2 2 2 3 2 3 2 2 2 2 1 1 2 1 0 1 5 8 8 10 11 7 4 10 9 9 10 11 10 9 3
2 2 1 1 1 2 2 2 1 1 0 1 1 0 1 2 1 3 5 7 9 10 10 11 10 12 12 12 12 12 11 2
2 1 1 2 4 3 4 3 3 2 3 2 2 2 1 2 3 3 3 3 3 4 4 8 11 12 12 12 11 3 4 2
1 3 2 3 6 4 4 5 4 3 2 3 3 3 4 3 3 3 3 4 4 3 5 4 10 12 13 14 3 3 4 3
Wind_Direction
242 187 168 171 172 177 177 168 161 155 156 155 150 145 140 145 154 151 135 140 151 155 153 153 146 149 158 156 169 157 171 151
60 64 84 103 128 135 139 137 139 141 131 132 128 125 134 143 142 145 128 141 147 155 153 160 160 164 155 170 169 173 174 151
56 69 72 93 108 115 122 125 124 119 117 117 116 117 126 139 142 141 142 142 154 151 160 169 177 177 181 187 187 191 188 182
43 63 71 81 92 96 99 98 102 110 112 111 116 125 129 131 131 132 137 149 154 157 175 182 187 184 190 187 192 197 198 194
68 27 68 70 87 94 87 91 99 103 113 115 112 112 115 125 136 141 143 155 171 170 180 178 181 188 193 195 200 204 202 202
111 103 51 73 91 85 86 96 100 104 117 127 118 112 123 136 142 144 161 172 170 172 179 186 189 196 198 200 200 207 212 207
122 111 130 125 102 101 97 94 113 122 122 113 116 128 142 150 156 161 170 164 159 190 201 194 193 215 223 204 209 207 211 214
170 165 145 144 138 127 123 114 98 97 111 130 130 137 139 136 140 151 165 150 189 201 204 206 202 229 234 238 205 209 211 214
154 124 115 104 104 113 120 126 123 124 139 146 137 130 136 152 175 175 176 196 200 205 211 219 224 234 238 239 236 221 218 216
121 113 111 106 115 121 110 120 122 129 128 119 130 139 155 165 166 170 187 201 205 206 199 207 223 233 232 233 233 236 231 215
112 107 105 94 122 122 137 132 119 130 140 117 118 130 164 155 171 178 205 204 200 227 213 209 216 241 240 234 211 226 216 216
98 103 103 100 104 91 85 92 100 108 107 129 154 151 179 152 172 175 192 194 188 226 259 242 233 244 250 252 231 224 217 211
79 98 106 114 121 132 139 121 110 113 110 116 134 194 154 149 163 184 174 193 222 223 275 244 230 223 244 243 245 234 222 203
91 92 62 56 99 128 116 112 103 105 131 175 154 188 141 149 180 198 162 195 219 244 230 282 23 242 250 349 100 64 69 51
81 89 86 53 55 81 107 95 85 85 194 188 137 155 26 280 222 213 193 207 218 225 205 247 352 344 260 212 69 45 93 37
75 89 99 80 85 70 101 133 159 174 184 181 169 171 168 222 200 229 228 196 196 225 192 174 259 244 238 216 220 209 226 115
59 122 126 120 123 142 153 166 165 165 149 155 165 172 189 187 293 273 260 255 246 234 205 234 234 249 255 251 259 255 232 88
8 354 52 60 292 262 213 163 199 248 139 135 136 308 336 4 6 322 336 297 272 265 265 268 263 255 254 256 256 260 265 149
21 16 357 291 267 244 209 200 210 218 237 226 199 199 205 215 225 207 216 245 288 296 292 290 283 277 275 272 276 293 288 175
337 287 260 263 274 230 195 203 209 210 221 212 211 211 219 216 226 225 231 239 248 308 300 294 294 293 284 276 263 226 221 222